DISCOBAY Weather Reports


Display with metric or nautical units.
time (UTC)temp
F
wind
direction
speed
MPH
gust
MPH
rain 1hr
in
rain 24hr
in
rain mn
in
humidity
%
barometer
mb
20260505064631 54 0 0.0 2.0 0.00 0.00 0.00 86 1011.9
20260505063058 55 0 0.0 1.0 0.00 0.00 0.00 82 1011.9
20260505061600 56 0 0.0 2.0 0.00 0.00 0.00 81 1011.7
20260505060056 57 0 0.0 1.0 0.00 0.00 0.00 80 1011.5
20260505054554 57 0 0.0 0.0 0.00 0.00 0.00 80 1011.3
20260505053057 57 0 0.0 0.0 0.00 0.00 0.00 80 1011.3
20260505051554 58 0 0.0 0.0 0.00 0.00 0.00 79 1011.2
20260505050106 58 0 0.0 2.0 0.00 0.00 0.00 78 1010.9
20260505041602 61 0 1.0 2.0 0.00 0.00 0.00 73 1010.5
20260505040100 61 0 0.0 2.0 0.00 0.00 0.00 72 1010.5
20260505034608 61 0 0.0 2.0 0.00 0.00 0.00 71 1010.4
20260505033054 62 0 0.0 2.0 0.00 0.00 0.00 69 1010.1
20260505031551 63 0 0.0 2.0 0.00 0.00 0.00 68 1009.9
20260505030127 63 0 0.0 2.0 0.00 0.00 0.00 66 1009.7
20260505024608 65 21 1.0 3.0 0.00 0.00 0.00 64 1009.7
20260505023052 65 21 1.0 4.0 0.00 0.00 0.00 62 1009.6
20260505021552 67 21 0.0 3.0 0.00 0.00 0.00 60 1009.7
20260505020104 68 0 0.0 2.0 0.00 0.00 0.00 58 1009.9
20260505014553 68 0 0.0 2.0 0.00 0.00 0.00 60 1010.0
20260505013053 67 21 1.0 3.0 0.00 0.00 0.00 59 1010.2
20260505011557 68 21 2.0 4.0 0.00 0.00 0.00 58 1010.3
20260505010108 68 23 1.0 5.0 0.00 0.00 0.00 59 1010.4
20260505004620 69 19 2.0 5.0 0.00 0.00 0.00 58 1010.4
20260505003059 70 26 1.0 4.0 0.00 0.00 0.00 55 1010.4
20260505001552 70 0 2.0 5.0 0.00 0.00 0.00 55 1010.4
20260505000107 71 43 1.0 5.0 0.00 0.00 0.00 54 1010.4
20260504234554 71 68 1.0 4.0 0.00 0.00 0.00 50 1010.4
20260504233053 71 32 2.0 6.0 0.00 0.00 0.00 50 1010.6
20260504231620 71 266 2.0 10.0 0.00 0.00 0.00 52 1010.6
20260504230051 71 339 1.0 5.0 0.00 0.00 0.00 52 1010.6
20260504224552 72 352 1.0 4.0 0.00 0.00 0.00 50 1010.8
20260504223101 72 348 2.0 4.0 0.00 0.00 0.00 48 1010.8
20260504221641 75 262 1.0 7.0 0.00 0.00 0.00 43 1010.8
20260504220056 75 267 3.0 6.0 0.00 0.00 0.00 39 1010.8
20260504214554 77 306 1.0 4.0 0.00 0.00 0.00 39 1011.0
20260504213101 76 257 2.0 6.0 0.00 0.00 0.00 41 1011.2
20260504211553 78 298 0.0 4.0 0.00 0.00 0.00 39 1011.2
20260504210058 77 277 1.0 6.0 0.00 0.00 0.00 42 1011.1
20260504204600 76 0 1.0 6.0 0.00 0.00 0.00 42 1011.2
20260504203053 76 312 1.0 4.0 0.00 0.00 0.00 41 1011.1
20260504201554 76 270 1.0 4.0 0.00 0.00 0.00 40 1011.3
20260504200056 76 257 0.0 4.0 0.00 0.00 0.00 41 1011.3
20260504194558 74 248 4.0 7.0 0.00 0.00 0.00 44 1011.1
20260504193055 73 0 2.0 7.0 0.00 0.00 0.00 49 1011.3
20260504191615 71 242 3.0 5.0 0.00 0.00 0.00 50 1011.5
20260504190058 69 246 1.0 3.0 0.00 0.00 0.00 53 1011.4
20260504184601 70 247 4.0 8.0 0.00 0.00 0.00 52 1011.5
20260504183054 71 259 1.0 6.0 0.00 0.00 0.00 48 1011.5
20260504181551 70 0 0.0 4.0 0.00 0.00 0.00 49 1011.7
20260504180054 68 43 0.0 4.0 0.00 0.00 0.00 51 1011.6
20260504174553 67 342 0.0 4.0 0.00 0.00 0.00 53 1011.5
20260504173055 67 263 0.0 4.0 0.00 0.00 0.00 56 1011.5
20260504171553 66 0 1.0 7.0 0.00 0.00 0.00 59 1011.6
20260504140105 59 325 1.0 2.0 0.00 0.00 0.00 60 1010.2
20260504081553 65 325 0.0 0.0 0.00 0.00 0.00 44 1009.7